TimeMST,TemperatureF,Dew PointF,Humidity,Sea Level PressureIn,VisibilityMPH,Wind Direction,Wind SpeedMPH,Gust SpeedMPH,PrecipitationIn,Events,Conditions,WindDirDegrees,DateUTC
12:56 AM,39.0,32.0,76,30.19,10.0,WSW,5.8,-,N/A,,Mostly Cloudy,250,2013-11-11 07:56:00
1:56 AM,36.0,30.9,82,30.22,10.0,Calm,Calm,-,N/A,,Clear,0,2013-11-11 08:56:00
2:56 AM,35.1,30.0,82,30.24,10.0,Calm,Calm,-,N/A,,Partly Cloudy,0,2013-11-11 09:56:00
3:56 AM,34.0,30.0,85,30.28,10.0,WNW,6.9,-,N/A,,Overcast,300,2013-11-11 10:56:00
4:56 AM,32.0,28.9,88,30.31,10.0,SSE,4.6,-,N/A,,Mostly Cloudy,160,2013-11-11 11:56:00
5:56 AM,32.0,28.9,88,30.34,9.0,SE,3.5,-,N/A,,Mostly Cloudy,130,2013-11-11 12:56:00
6:56 AM,33.1,28.9,85,30.36,10.0,Calm,Calm,-,N/A,,Mostly Cloudy,0,2013-11-11 13:56:00
7:56 AM,33.1,28.9,85,30.40,8.0,Calm,Calm,-,N/A,,Mostly Cloudy,0,2013-11-11 14:56:00
8:56 AM,33.1,28.9,85,30.40,7.0,Calm,Calm,-,N/A,,Clear,0,2013-11-11 15:56:00
9:56 AM,35.1,30.0,82,30.40,8.0,Calm,Calm,-,N/A,,Clear,0,2013-11-11 16:56:00
10:56 AM,37.9,30.9,76,30.41,9.0,Calm,Calm,-,N/A,,Partly Cloudy,0,2013-11-11 17:56:00
11:56 AM,41.0,30.9,67,30.40,10.0,Calm,Calm,-,N/A,,Clear,0,2013-11-11 18:56:00
12:56 PM,46.0,33.1,61,30.39,10.0,Calm,Calm,-,N/A,,Clear,0,2013-11-11 19:56:00
1:56 PM,46.0,34.0,63,30.41,10.0,Calm,Calm,-,N/A,,Partly Cloudy,0,2013-11-11 20:56:00
2:56 PM,46.0,34.0,63,30.41,10.0,Calm,Calm,-,N/A,,Clear,0,2013-11-11 21:56:00
3:56 PM,44.1,35.1,71,30.44,10.0,North,3.5,-,N/A,,Mostly Cloudy,350,2013-11-11 22:56:00
4:56 PM,41.0,34.0,76,30.46,10.0,NNW,3.5,-,N/A,,Clear,340,2013-11-11 23:56:00
5:56 PM,37.0,32.0,82,30.48,9.0,West,3.5,-,N/A,,Clear,280,2013-11-12 00:56:00
6:56 PM,32.0,28.0,85,30.52,8.0,Calm,Calm,-,N/A,,Clear,0,2013-11-12 01:56:00
7:56 PM,32.0,28.9,88,30.52,7.0,South,6.9,-,N/A,,Clear,190,2013-11-12 02:56:00
8:56 PM,28.9,25.0,85,30.53,9.0,SSW,4.6,-,N/A,,Clear,210,2013-11-12 03:56:00
9:56 PM,28.9,26.1,89,30.53,6.0,Calm,Calm,-,N/A,,Clear,0,2013-11-12 04:56:00
10:56 PM,28.9,25.0,85,30.52,9.0,Calm,Calm,-,N/A,,Clear,0,2013-11-12 05:56:00
11:56 PM,25.0,21.9,88,30.54,10.0,ESE,5.8,-,N/A,,Clear,120,2013-11-12 06:56:00